TimePDT,TemperatureF,Dew PointF,Humidity,Sea Level PressureIn,VisibilityMPH,Wind Direction,Wind SpeedMPH,Gust SpeedMPH,PrecipitationIn,Events,Conditions,WindDirDegrees,DateUTC
12:52 AM,57.9,23.0,26,29.91,10.0,East,3.5,-,N/A,,Clear,90,2013-03-20 07:52:00
1:52 AM,60.1,21.0,22,29.88,10.0,ESE,6.9,-,N/A,,Clear,110,2013-03-20 08:52:00
2:52 AM,60.1,21.0,22,29.83,10.0,SE,8.1,-,N/A,,Partly Cloudy,130,2013-03-20 09:52:00
3:52 AM,60.1,19.9,21,29.81,10.0,Calm,Calm,-,N/A,,Clear,0,2013-03-20 10:52:00
4:34 AM,64.4,26.6,24,29.90,10.0,South,19.6,28.8,N/A,,Clear,190,2013-03-20 11:34:00
4:52 AM,64.0,27.0,25,29.79,10.0,South,20.7,27.6,N/A,,Clear,190,2013-03-20 11:52:00
5:52 AM,63.0,28.9,28,29.80,10.0,South,15.0,20.7,N/A,,Clear,190,2013-03-20 12:52:00
7:52 AM,64.0,28.9,27,29.83,10.0,SSW,19.6,26.5,N/A,,Clear,210,2013-03-20 14:52:00
8:52 AM,64.9,28.9,26,29.84,10.0,SW,18.4,25.3,N/A,,Clear,220,2013-03-20 15:52:00
9:52 AM,68.0,28.0,22,29.83,10.0,SSW,23.0,28.8,N/A,,Clear,210,2013-03-20 16:52:00
10:52 AM,68.0,28.9,23,29.86,10.0,SSW,18.4,28.8,N/A,,Clear,210,2013-03-20 17:52:00
11:52 AM,68.0,28.0,22,29.87,10.0,SW,18.4,26.5,N/A,,Clear,220,2013-03-20 18:52:00
12:52 PM,69.1,28.0,22,29.85,10.0,SW,11.5,-,N/A,,Clear,230,2013-03-20 19:52:00
1:52 PM,69.1,27.0,21,29.83,10.0,SW,13.8,-,N/A,,Clear,230,2013-03-20 20:52:00
2:52 PM,-9999,-9999,N/A,29.91,-9999.0,North,-9999.0,-,N/A,,Unknown,0,2013-03-20 21:52:00
3:52 PM,-9999,-9999,N/A,29.89,-9999.0,North,-9999.0,-,N/A,,Unknown,0,2013-03-20 22:52:00
4:52 PM,-9999,-9999,N/A,29.88,-9999.0,North,-9999.0,-,N/A,,Unknown,0,2013-03-20 23:52:00
5:52 PM,66.9,26.1,21,29.76,10.0,SW,15.0,21.9,N/A,,Clear,220,2013-03-21 00:52:00
6:52 PM,66.0,25.0,21,29.75,10.0,SW,9.2,-,N/A,,Clear,230,2013-03-21 01:52:00
7:52 PM,64.9,25.0,22,29.74,10.0,South,8.1,-,N/A,,Clear,190,2013-03-21 02:52:00
8:52 PM,62.1,25.0,24,29.74,10.0,WNW,6.9,-,N/A,,Clear,290,2013-03-21 03:52:00
9:52 PM,57.9,25.0,28,29.76,10.0,NNW,6.9,-,N/A,,Clear,330,2013-03-21 04:52:00
10:52 PM,57.9,26.1,30,29.75,10.0,NE,8.1,-,N/A,,Partly Cloudy,40,2013-03-21 05:52:00
11:52 PM,53.1,26.1,35,29.76,10.0,North,3.5,-,N/A,,Clear,360,2013-03-21 06:52:00